Hovedside
METAR-TAF:

METAR-TAF

Lufthavner :

Mora, Sverige

Mora–Siljan

breddegrad: 60-57-31N, lengdegrad: 14-30-40E, høyde over havet: 193 m

Gjeldene værobservasjon

Denne rapporten ble laget for 21 minutter siden, klokken 11:50 UTC
Vind 8 kt fra Nord-nordvest
Temperatur -1°C
Luftfuktighet 93%
Trykk 987 hPa
Sikt 10 km eller mer
lett snø

METAR: ESKM 151150Z AUTO 33008KT 9999 -SN FEW008/// BKN016/// OVC024/// M01/M02 Q0987

Tid: 13:11 (12:11 UTC)


TAF: fraværende

Værobservasjoner og værvarsel for over 4000 flyplasser (METAR- og TAF-rapporter).

Tilgjengelige stasjoner er representert av de røde og gule prikkene på kartet.

Hold musepekeren over prikken for å se navnet på stasjonen.

Klikk så for å se værobservasjoner og -varsler.

For å forandre kartet kan du klikke på den grønne knappen med svart kryss for å zoome inn, på den grønne knappen med strek for å zoome ut, eller på de grønne pilene for å se tilstøtende kart.


METAR-TAF: